| time (UTC) | temp C | wind direction | speed KPH | gust KPH | rain 1hr cm | rain 24hr cm | rain mn cm | humidity % | barometer mb |
| 20260905042229 | 19 | 30 | 0.0 | 0.0 | 0.00 | 0.00 | 0.00 | 99 | 1014.7 |
| 20260905041726 | 19 | 30 | 0.0 | 0.0 | 0.00 | 0.00 | 0.00 | 99 | 1014.6 |
| 20260905041221 | 19 | 30 | 0.0 | 0.0 | 0.00 | 0.00 | 0.00 | 99 | 1014.6 |
| 20260905040716 | 19 | 30 | 0.0 | 0.0 | 0.00 | 0.00 | 0.00 | 99 | 1014.7 |
| 20260905040214 | 19 | 30 | 0.0 | 0.0 | 0.00 | 0.00 | 0.00 | 99 | 1014.7 |
| 20260905035709 | 19 | 30 | 0.0 | 0.0 | 0.00 | 0.23 | 0.23 | 99 | 1014.6 |
| 20260905035206 | 19 | 30 | 0.0 | 0.0 | 0.00 | 0.23 | 0.23 | 99 | 1014.8 |
| 20260905034702 | 19 | 30 | 1.6 | 0.0 | 0.00 | 0.23 | 0.23 | 98 | 1014.7 |
| 20260905034201 | 20 | 30 | 0.0 | 0.0 | 0.00 | 0.23 | 0.23 | 98 | 1014.7 |
| 20260905033700 | 20 | 30 | 0.0 | 0.0 | 0.00 | 0.23 | 0.23 | 98 | 1014.6 |
| 20260905033156 | 20 | 30 | 0.0 | 0.0 | 0.00 | 0.23 | 0.23 | 98 | 1014.6 |
| 20260905032655 | 20 | 30 | 0.0 | 0.0 | 0.00 | 0.23 | 0.23 | 98 | 1014.4 |
| 20260905032156 | 20 | 30 | 0.0 | 0.0 | 0.00 | 0.23 | 0.23 | 98 | 1014.7 |
| 20260905031652 | 20 | 30 | 0.0 | 0.0 | 0.00 | 0.23 | 0.23 | 98 | 1014.7 |
| 20260905031147 | 20 | 30 | 0.0 | 0.0 | 0.00 | 0.23 | 0.23 | 98 | 1014.6 |
| 20260905030642 | 20 | 30 | 0.0 | 0.0 | 0.00 | 0.23 | 0.23 | 98 | 1014.7 |
| 20260905030137 | 20 | 30 | 0.0 | 0.0 | 0.00 | 0.23 | 0.23 | 98 | 1014.6 |
| 20260905025632 | 20 | 30 | 0.0 | 0.0 | 0.00 | 0.23 | 0.23 | 98 | 1014.7 |
| 20260905025128 | 20 | 30 | 0.0 | 0.0 | 0.00 | 0.23 | 0.23 | 98 | 1014.8 |
| 20260905024623 | 20 | 30 | 0.0 | 0.0 | 0.00 | 0.23 | 0.23 | 98 | 1014.7 |
| 20260905024119 | 20 | 30 | 0.0 | 0.0 | 0.00 | 0.23 | 0.23 | 98 | 1014.8 |
| 20260905023614 | 20 | 30 | 0.0 | 0.0 | 0.00 | 0.23 | 0.23 | 98 | 1014.8 |
| 20260905023108 | 20 | 30 | 0.0 | 0.0 | 0.00 | 0.23 | 0.23 | 98 | 1014.9 |
| 20260905022607 | 20 | 30 | 0.0 | 0.0 | 0.00 | 0.23 | 0.23 | 98 | 1014.8 |
| 20260905022103 | 20 | 30 | 0.0 | 0.0 | 0.00 | 0.23 | 0.23 | 98 | 1014.9 |
| 20260905021602 | 20 | 30 | 0.0 | 0.0 | 0.00 | 0.23 | 0.23 | 98 | 1014.9 |
| 20260905021058 | 20 | 30 | 0.0 | 0.0 | 0.00 | 0.23 | 0.23 | 98 | 1015.0 |
| 20260905020557 | 20 | 30 | 0.0 | 0.0 | 0.00 | 0.23 | 0.23 | 98 | 1015.0 |
| 20260905020053 | 20 | 30 | 0.0 | 0.0 | 0.00 | 0.23 | 0.23 | 98 | 1015.0 |
| 20260905015550 | 20 | 30 | 0.0 | 0.0 | 0.00 | 0.23 | 0.23 | 98 | 1015.0 |
| 20260905015045 | 20 | 30 | 0.0 | 0.0 | 0.00 | 0.23 | 0.23 | 97 | 1014.9 |
| 20260905014540 | 20 | 30 | 0.0 | 0.0 | 0.00 | 0.23 | 0.23 | 97 | 1014.8 |
| 20260905014036 | 21 | 30 | 0.0 | 0.0 | 0.00 | 0.23 | 0.23 | 97 | 1014.8 |
| 20260905013532 | 21 | 30 | 0.0 | 0.0 | 0.00 | 0.23 | 0.23 | 97 | 1014.8 |
| 20260905013027 | 21 | 30 | 0.0 | 0.0 | 0.00 | 0.23 | 0.23 | 97 | 1014.8 |
| 20260905012521 | 21 | 30 | 0.0 | 0.0 | 0.00 | 0.23 | 0.23 | 97 | 1014.6 |
| 20260905012019 | 21 | 30 | 0.0 | 0.0 | 0.00 | 0.23 | 0.23 | 97 | 1014.7 |
| 20260905011515 | 21 | 30 | 0.0 | 0.0 | 0.00 | 0.23 | 0.23 | 97 | 1014.8 |
| 20260905011010 | 21 | 30 | 0.0 | 0.0 | 0.00 | 0.23 | 0.23 | 97 | 1014.7 |
| 20260905010509 | 21 | 30 | 0.0 | 0.0 | 0.00 | 0.23 | 0.23 | 96 | 1014.8 |
| 20260905010006 | 21 | 30 | 0.0 | 0.0 | 0.00 | 0.23 | 0.23 | 96 | 1014.8 |
| 20260905005501 | 21 | 30 | 1.6 | 1.6 | 0.00 | 0.23 | 0.23 | 96 | 1014.8 |
| 20260905004956 | 21 | 30 | 0.0 | 0.0 | 0.00 | 0.23 | 0.23 | 96 | 1014.8 |
| 20260905004451 | 21 | 30 | 0.0 | 0.0 | 0.00 | 0.23 | 0.23 | 96 | 1014.8 |
| 20260905003946 | 21 | 30 | 0.0 | 0.0 | 0.00 | 0.23 | 0.23 | 95 | 1014.6 |
| 20260905003442 | 21 | 30 | 0.0 | 0.0 | 0.00 | 0.23 | 0.23 | 95 | 1014.7 |
| 20260905002937 | 22 | 30 | 0.0 | 1.6 | 0.00 | 0.23 | 0.23 | 95 | 1014.5 |
| 20260905002437 | 22 | 30 | 0.0 | 0.0 | 0.00 | 0.23 | 0.23 | 94 | 1014.6 |
| 20260905001931 | 22 | 30 | 1.6 | 1.6 | 0.00 | 0.23 | 0.23 | 94 | 1014.4 |
| 20260905001427 | 22 | 30 | 0.0 | 0.0 | 0.00 | 0.23 | 0.23 | 93 | 1014.5 |
| 20260905000921 | 22 | 30 | 1.6 | 1.6 | 0.00 | 0.23 | 0.23 | 93 | 1014.4 |
| 20260905000417 | 22 | 30 | 0.0 | 0.0 | 0.00 | 0.23 | 0.23 | 93 | 1014.5 |
| 20260904235912 | 22 | 30 | 3.2 | 4.8 | 0.00 | 0.23 | 0.23 | 92 | 1014.7 |
| 20260904235408 | 22 | 30 | 0.0 | 0.0 | 0.00 | 0.23 | 0.23 | 91 | 1014.6 |
| 20260904234902 | 23 | 30 | 1.6 | 1.6 | 0.00 | 0.23 | 0.23 | 91 | 1014.6 |
| 20260904234356 | 23 | 105 | 0.0 | 0.0 | 0.00 | 0.23 | 0.23 | 90 | 1014.3 |
| 20260904233852 | 23 | 273 | 0.0 | 0.0 | 0.00 | 0.23 | 0.23 | 89 | 1014.5 |
| 20260904233348 | 23 | 273 | 1.6 | 1.6 | 0.00 | 0.23 | 0.23 | 88 | 1014.8 |
| 20260904232844 | 23 | 273 | 0.0 | 0.0 | 0.00 | 0.23 | 0.23 | 88 | 1014.8 |
| 20260904232341 | 23 | 273 | 0.0 | 0.0 | 0.00 | 0.23 | 0.23 | 88 | 1015.1 |
| 20260904231836 | 23 | 273 | 0.0 | 0.0 | 0.00 | 0.23 | 0.23 | 88 | 1015.2 |
| 20260904231331 | 23 | 273 | 0.0 | 1.6 | 0.00 | 0.23 | 0.23 | 87 | 1015.2 |
| 20260904230826 | 24 | 273 | 1.6 | 1.6 | 0.00 | 0.23 | 0.23 | 85 | 1015.2 |
| 20260904230325 | 24 | 273 | 0.0 | 0.0 | 0.00 | 0.23 | 0.23 | 84 | 1015.0 |
| 20260904225820 | 24 | 273 | 0.0 | 0.0 | 0.00 | 0.23 | 0.23 | 85 | 1015.0 |
| 20260904225318 | 24 | 273 | 0.0 | 0.0 | 0.00 | 0.23 | 0.23 | 85 | 1014.7 |
| 20260904224817 | 24 | 273 | 0.0 | 1.6 | 0.00 | 0.23 | 0.23 | 85 | 1014.7 |
| 20260904224314 | 25 | 273 | 0.0 | 1.6 | 0.00 | 0.23 | 0.23 | 85 | 1014.6 |
| 20260904223813 | 25 | 273 | 0.0 | 1.6 | 0.00 | 0.23 | 0.23 | 83 | 1014.7 |
| 20260904223307 | 25 | 273 | 0.0 | 0.0 | 0.00 | 0.23 | 0.23 | 82 | 1014.6 |
| 20260904222804 | 25 | 273 | 0.0 | 0.0 | 0.00 | 0.23 | 0.23 | 82 | 1014.5 |
| 20260904222259 | 25 | 272 | 0.0 | 0.0 | 0.00 | 0.23 | 0.23 | 81 | 1014.4 |
| 20260904221758 | 25 | 320 | 0.0 | 0.0 | 0.00 | 0.23 | 0.23 | 82 | 1014.4 |
| 20260904221253 | 25 | 320 | 0.0 | 1.6 | 0.00 | 0.23 | 0.23 | 81 | 1014.3 |
| 20260904220749 | 25 | 320 | 0.0 | 0.0 | 0.00 | 0.23 | 0.23 | 81 | 1014.1 |
| 20260904220247 | 25 | 320 | 0.0 | 1.6 | 0.00 | 0.23 | 0.23 | 79 | 1013.9 |
| 20260904215743 | 25 | 104 | 1.6 | 1.6 | 0.00 | 0.23 | 0.23 | 79 | 1013.9 |
| 20260904215238 | 25 | 105 | 0.0 | 1.6 | 0.00 | 0.23 | 0.23 | 79 | 1013.9 |
| 20260904214734 | 25 | 269 | 0.0 | 1.6 | 0.00 | 0.23 | 0.23 | 79 | 1013.9 |
| 20260904214229 | 25 | 66 | 0.0 | 1.6 | 0.00 | 0.23 | 0.23 | 79 | 1013.8 |
| 20260904213727 | 25 | 135 | 3.2 | 1.6 | 0.00 | 0.23 | 0.23 | 79 | 1013.7 |
| 20260904213224 | 25 | 270 | 4.8 | 8.0 | 0.00 | 0.23 | 0.23 | 79 | 1013.8 |
| 20260904212719 | 25 | 248 | 1.6 | 6.4 | 0.00 | 0.23 | 0.23 | 80 | 1013.7 |
| 20260904212214 | 25 | 160 | 0.0 | 1.6 | 0.00 | 0.23 | 0.23 | 79 | 1013.5 |
| 20260904211714 | 25 | 229 | 1.6 | 1.6 | 0.00 | 0.23 | 0.23 | 79 | 1013.5 |
| 20260904211208 | 25 | 310 | 4.8 | 4.8 | 0.00 | 0.23 | 0.23 | 79 | 1013.4 |
| 20260904210703 | 25 | 223 | 0.0 | 6.4 | 0.00 | 0.23 | 0.23 | 77 | 1013.2 |
| 20260904210158 | 25 | 288 | 0.0 | 1.6 | 0.00 | 0.23 | 0.23 | 79 | 1013.3 |
| 20260904205654 | 25 | 145 | 0.0 | 1.6 | 0.00 | 0.23 | 0.23 | 79 | 1013.3 |
| 20260904205150 | 25 | 137 | 3.2 | 4.8 | 0.00 | 0.23 | 0.23 | 78 | 1012.9 |
| 20260904204646 | 25 | 193 | 1.6 | 4.8 | 0.00 | 0.23 | 0.23 | 78 | 1013.3 |
| 20260904204142 | 25 | 226 | 4.8 | 6.4 | 0.00 | 0.23 | 0.23 | 75 | 1013.3 |
| 20260904203637 | 25 | 131 | 0.0 | 4.8 | 0.00 | 0.23 | 0.23 | 74 | 1013.3 |
| 20260904203134 | 26 | 256 | 3.2 | 4.8 | 0.00 | 0.23 | 0.23 | 72 | 1013.8 |
| 20260904202630 | 26 | 158 | 8.0 | 8.0 | 0.00 | 0.23 | 0.23 | 72 | 1013.8 |
| 20260904202126 | 26 | 174 | 4.8 | 6.4 | 0.00 | 0.23 | 0.23 | 74 | 1013.9 |
| 20260904201626 | 26 | 63 | 3.2 | 4.8 | 0.00 | 0.23 | 0.23 | 74 | 1014.1 |
| 20260904201121 | 26 | 51 | 1.6 | 4.8 | 0.00 | 0.23 | 0.23 | 73 | 1014.1 |
| 20260904200615 | 26 | 87 | 1.6 | 4.8 | 0.00 | 0.23 | 0.23 | 73 | 1014.3 |
| 20260904200110 | 26 | 15 | 3.2 | 6.4 | 0.00 | 0.23 | 0.23 | 73 | 1014.3 |
| 20260904195609 | 26 | 345 | 1.6 | 4.8 | 0.00 | 0.23 | 0.23 | 74 | 1014.6 |
| 20260904195107 | 26 | 345 | 3.2 | 4.8 | 0.00 | 0.23 | 0.23 | 72 | 1014.6 |
| 20260904194602 | 26 | 300 | 3.2 | 6.4 | 0.00 | 0.23 | 0.23 | 75 | 1014.7 |
| 20260904194057 | 25 | 339 | 4.8 | 6.4 | 0.00 | 0.23 | 0.23 | 77 | 1014.8 |
| 20260904193551 | 25 | 252 | 4.8 | 4.8 | 0.00 | 0.23 | 0.23 | 76 | 1015.2 |
| 20260904193048 | 25 | 4 | 4.8 | 8.0 | 0.00 | 0.23 | 0.23 | 78 | 1015.1 |
| 20260904192548 | 25 | 349 | 1.6 | 6.4 | 0.00 | 0.23 | 0.23 | 78 | 1015.0 |
| 20260904192043 | 25 | 342 | 4.8 | 6.4 | 0.00 | 0.23 | 0.23 | 80 | 1014.9 |
| 20260904191540 | 25 | 265 | 3.2 | 6.4 | 0.00 | 0.23 | 0.23 | 78 | 1014.7 |
| 20260904191036 | 25 | 42 | 0.0 | 4.8 | 0.00 | 0.23 | 0.23 | 81 | 1014.7 |
| 20260904190532 | 25 | 277 | 3.2 | 4.8 | 0.00 | 0.23 | 0.23 | 82 | 1014.9 |
| 20260904190028 | 24 | 227 | 0.0 | 1.6 | 0.00 | 0.23 | 0.23 | 83 | 1014.9 |
| 20260904185524 | 25 | 257 | 3.2 | 6.4 | 0.00 | 0.23 | 0.23 | 81 | 1015.2 |
| 20260904185018 | 25 | 344 | 0.0 | 1.6 | 0.00 | 0.23 | 0.23 | 80 | 1015.1 |
| 20260904184513 | 25 | 20 | 0.0 | 8.0 | 0.00 | 0.23 | 0.23 | 80 | 1015.2 |
| 20260904184008 | 25 | 8 | 0.0 | 4.8 | 0.00 | 0.23 | 0.23 | 79 | 1015.0 |
| 20260904183503 | 25 | 7 | 1.6 | 4.8 | 0.00 | 0.23 | 0.23 | 79 | 1015.5 |
| 20260904182958 | 26 | 47 | 0.0 | 4.8 | 0.00 | 0.23 | 0.23 | 78 | 1015.7 |
| 20260904182454 | 26 | 31 | 1.6 | 4.8 | 0.00 | 0.23 | 0.23 | 78 | 1015.6 |
| 20260904181953 | 25 | 17 | 6.4 | 8.0 | 0.00 | 0.23 | 0.23 | 81 | 1016.0 |
| 20260904181449 | 25 | 7 | 8.0 | 11.3 | 0.00 | 0.23 | 0.23 | 80 | 1016.2 |
| 20260904180944 | 25 | 348 | 4.8 | 11.3 | 0.00 | 0.23 | 0.23 | 83 | 1016.4 |
| 20260904180438 | 25 | 271 | 4.8 | 8.0 | 0.00 | 0.23 | 0.23 | 81 | 1016.4 |
| 20260904175938 | 24 | 45 | 0.0 | 8.0 | 0.00 | 0.23 | 0.23 | 84 | 1016.4 |
| 20260904175437 | 23 | 356 | 9.7 | 16.1 | 0.00 | 0.23 | 0.23 | 83 | 1016.5 |
| 20260904174932 | 23 | 223 | 8.0 | 12.9 | 0.00 | 0.23 | 0.23 | 85 | 1016.5 |
| 20260904174427 | 24 | 336 | 14.5 | 17.7 | 0.00 | 0.23 | 0.23 | 83 | 1016.9 |
| 20260904173923 | 25 | 311 | 4.8 | 16.1 | 0.00 | 0.23 | 0.23 | 83 | 1016.9 |
| 20260904173413 | 25 | 343 | 1.6 | 4.8 | 0.00 | 0.23 | 0.23 | 85 | 1016.6 |
| 20260904172908 | 23 | 349 | 4.8 | 6.4 | 0.00 | 0.23 | 0.23 | 86 | 1016.6 |
| 20260904172402 | 23 | 334 | 1.6 | 6.4 | 0.00 | 0.23 | 0.23 | 88 | 1016.9 |
| 20260904171857 | 23 | 339 | 3.2 | 4.8 | 0.00 | 0.23 | 0.23 | 89 | 1016.6 |
| 20260904171352 | 23 | 18 | 3.2 | 6.4 | 0.00 | 0.23 | 0.23 | 89 | 1016.6 |
| 20260904170849 | 24 | 331 | 9.7 | 12.9 | 0.00 | 0.23 | 0.23 | 86 | 1016.7 |
| 20260904170344 | 23 | 6 | 1.6 | 1.6 | 0.00 | 0.23 | 0.23 | 88 | 1016.9 |
| 20260904165838 | 23 | 358 | 1.6 | 4.8 | 0.00 | 0.23 | 0.23 | 88 | 1016.9 |
| 20260904165337 | 23 | 356 | 0.0 | 1.6 | 0.00 | 0.23 | 0.23 | 90 | 1016.7 |
| 20260904164832 | 23 | 2 | 3.2 | 1.6 | 0.00 | 0.23 | 0.23 | 89 | 1016.7 |
| 20260904164326 | 23 | 21 | 3.2 | 6.4 | 0.00 | 0.23 | 0.23 | 88 | 1017.0 |
| 20260904163824 | 23 | 6 | 11.3 | 12.9 | 0.00 | 0.23 | 0.23 | 87 | 1017.0 |
| 20260904163323 | 23 | 334 | 8.0 | 11.3 | 0.00 | 0.23 | 0.23 | 88 | 1017.3 |
| 20260904162822 | 24 | 281 | 9.7 | 11.3 | 0.00 | 0.23 | 0.23 | 87 | 1017.0 |
| 20260904162318 | 23 | 300 | 4.8 | 8.0 | 0.00 | 0.23 | 0.23 | 90 | 1017.1 |
| 20260904161814 | 23 | 34 | 4.8 | 8.0 | 0.00 | 0.23 | 0.23 | 90 | 1016.9 |
| 20260904161314 | 23 | 4 | 8.0 | 8.0 | 0.00 | 0.23 | 0.23 | 90 | 1016.7 |
| 20260904160809 | 23 | 293 | 1.6 | 4.8 | 0.00 | 0.23 | 0.23 | 93 | 1016.4 |
| 20260904160304 | 22 | 169 | 4.8 | 8.0 | 0.00 | 0.23 | 0.23 | 95 | 1016.3 |
| 20260904155758 | 22 | 128 | 4.8 | 6.4 | 0.00 | 0.23 | 0.23 | 94 | 1016.4 |
| 20260904155258 | 22 | 157 | 3.2 | 6.4 | 0.00 | 0.23 | 0.23 | 95 | 1016.3 |
| 20260904154756 | 22 | 153 | 6.4 | 11.3 | 0.00 | 0.23 | 0.23 | 96 | 1016.0 |
| 20260904154252 | 21 | 121 | 4.8 | 4.8 | 0.00 | 0.23 | 0.23 | 98 | 1016.4 |
| 20260904153747 | 21 | 137 | 6.4 | 6.4 | 0.00 | 0.23 | 0.23 | 98 | 1016.6 |
| 20260904153243 | 21 | 57 | 1.6 | 1.6 | 0.00 | 0.23 | 0.23 | 98 | 1016.7 |
| 20260904152739 | 21 | 56 | 1.6 | 1.6 | 0.00 | 0.23 | 0.23 | 98 | 1016.9 |
| 20260904152234 | 21 | 56 | 1.6 | 4.8 | 0.18 | 0.23 | 0.23 | 98 | 1016.9 |
| 20260904151729 | 21 | 64 | 1.6 | 1.6 | 0.18 | 0.23 | 0.23 | 98 | 1016.9 |
| 20260904151228 | 21 | 62 | 0.0 | 0.0 | 0.18 | 0.20 | 0.20 | 98 | 1016.9 |
| 20260904150724 | 21 | 62 | 0.0 | 1.6 | 0.30 | 0.20 | 0.20 | 98 | 1016.9 |
| 20260904150219 | 21 | 115 | 0.0 | 1.6 | 0.30 | 0.18 | 0.18 | 98 | 1017.2 |
| 20260904145717 | 21 | 119 | 1.6 | 4.8 | 0.48 | 0.15 | 0.15 | 97 | 1017.2 |
| 20260904145213 | 21 | 58 | 0.0 | 1.6 | 0.30 | 0.10 | 0.10 | 97 | 1017.4 |
| 20260904144708 | 21 | 39 | 1.6 | 1.6 | 0.13 | 0.08 | 0.08 | 97 | 1017.3 |
| 20260904144204 | 21 | 24 | 0.0 | 0.0 | 0.18 | 0.05 | 0.05 | 97 | 1017.3 |
| 20260904143659 | 21 | 20 | 3.2 | 4.8 | 0.18 | 0.05 | 0.05 | 97 | 1017.1 |
| 20260904143156 | 21 | 2 | 0.0 | 0.0 | 0.00 | 0.03 | 0.03 | 97 | 1017.3 |
| 20260904142652 | 21 | 28 | 1.6 | 1.6 | 0.00 | 0.03 | 0.03 | 97 | 1017.0 |
| 20260904142148 | 21 | 20 | 0.0 | 0.0 | 0.00 | 0.03 | 0.03 | 97 | 1017.3 |
| 20260904141643 | 21 | 33 | 1.6 | 1.6 | 0.00 | 0.03 | 0.03 | 98 | 1017.3 |
| 20260904141138 | 21 | 25 | 1.6 | 0.0 | 0.00 | 0.03 | 0.03 | 98 | 1017.1 |
| 20260904140634 | 21 | 12 | 0.0 | 1.6 | 0.00 | 0.03 | 0.03 | 98 | 1017.1 |
| 20260904140133 | 21 | 8 | 0.0 | 1.6 | 0.00 | 0.03 | 0.03 | 98 | 1017.1 |
| 20260904135627 | 21 | 9 | 1.6 | 1.6 | 0.00 | 0.03 | 0.03 | 98 | 1017.0 |
| 20260904135123 | 21 | 9 | 0.0 | 1.6 | 0.00 | 0.03 | 0.03 | 99 | 1016.7 |
| 20260904134619 | 21 | 3 | 0.0 | 0.0 | 0.00 | 0.03 | 0.03 | 99 | 1016.6 |
| 20260904134117 | 21 | 341 | 3.2 | 1.6 | 0.00 | 0.03 | 0.03 | 99 | 1016.5 |
| 20260904133613 | 21 | 156 | 1.6 | 1.6 | 0.00 | 0.03 | 0.03 | 99 | 1016.3 |
| 20260904133109 | 21 | 127 | 1.6 | 1.6 | 0.00 | 0.03 | 0.03 | 99 | 1016.2 |
| 20260904132608 | 20 | 126 | 1.6 | 1.6 | 0.00 | 0.03 | 0.03 | 99 | 1016.1 |
| 20260904132103 | 20 | 126 | 0.0 | 0.0 | 0.00 | 0.03 | 0.03 | 99 | 1016.2 |
| 20260904131603 | 20 | 125 | 0.0 | 1.6 | 0.00 | 0.03 | 0.03 | 99 | 1016.0 |
| 20260904131058 | 20 | 112 | 0.0 | 0.0 | 0.00 | 0.03 | 0.03 | 99 | 1016.2 |
| 20260904130558 | 20 | 112 | 1.6 | 1.6 | 0.00 | 0.03 | 0.03 | 99 | 1016.4 |
| 20260904130053 | 20 | 113 | 0.0 | 0.0 | 0.00 | 0.03 | 0.03 | 99 | 1016.4 |
| 20260904125549 | 20 | 113 | 0.0 | 1.6 | 0.00 | 0.03 | 0.03 | 99 | 1016.1 |
| 20260904125044 | 20 | 112 | 3.2 | 4.8 | 0.00 | 0.03 | 0.03 | 99 | 1016.0 |
| 20260904124539 | 20 | 110 | 0.0 | 0.0 | 0.00 | 0.03 | 0.03 | 99 | 1016.2 |
| 20260904124034 | 20 | 109 | 1.6 | 4.8 | 0.00 | 0.03 | 0.03 | 99 | 1016.3 |
| 20260904123529 | 20 | 108 | 3.2 | 1.6 | 0.00 | 0.03 | 0.03 | 99 | 1016.0 |
| 20260904123024 | 20 | 108 | 3.2 | 1.6 | 0.00 | 0.03 | 0.03 | 99 | 1016.3 |
| 20260904122519 | 20 | 224 | 1.6 | 6.4 | 0.00 | 0.03 | 0.03 | 99 | 1016.3 |
| 20260904122014 | 20 | 110 | 1.6 | 4.8 | 0.00 | 0.03 | 0.03 | 99 | 1016.3 |
| 20260904121509 | 20 | 111 | 0.0 | 1.6 | 0.00 | 0.03 | 0.03 | 99 | 1016.1 |
| 20260904121005 | 20 | 128 | 0.0 | 0.0 | 0.00 | 0.03 | 0.03 | 99 | 1016.4 |
| 20260904120501 | 19 | 126 | 1.6 | 4.8 | 0.00 | 0.03 | 0.03 | 99 | 1016.4 |
| 20260904115955 | 19 | 51 | 0.0 | 0.0 | 0.00 | 0.03 | 0.03 | 99 | 1016.4 |
| 20260904115451 | 19 | 50 | 0.0 | 0.0 | 0.00 | 0.03 | 0.03 | 99 | 1016.5 |
| 20260904114951 | 19 | 50 | 1.6 | 1.6 | 0.00 | 0.03 | 0.03 | 99 | 1016.5 |
| 20260904114446 | 18 | 101 | 0.0 | 0.0 | 0.00 | 0.03 | 0.03 | 99 | 1016.4 |
| 20260904113941 | 18 | 101 | 0.0 | 0.0 | 0.00 | 0.03 | 0.03 | 99 | 1016.2 |
| 20260904113440 | 18 | 101 | 1.6 | 1.6 | 0.00 | 0.03 | 0.03 | 99 | 1016.3 |
| 20260904112940 | 18 | 101 | 1.6 | 1.6 | 0.00 | 0.03 | 0.03 | 99 | 1016.3 |
| 20260904112436 | 18 | 102 | 0.0 | 0.0 | 0.00 | 0.03 | 0.03 | 99 | 1016.2 |
| 20260904111931 | 18 | 100 | 1.6 | 1.6 | 0.00 | 0.03 | 0.03 | 99 | 1016.2 |
| 20260904111427 | 18 | 102 | 1.6 | 4.8 | 0.00 | 0.03 | 0.03 | 99 | 1016.2 |
| 20260904110923 | 18 | 67 | 0.0 | 0.0 | 0.00 | 0.03 | 0.03 | 99 | 1016.1 |
| 20260904110421 | 18 | 68 | 1.6 | 1.6 | 0.00 | 0.03 | 0.03 | 99 | 1016.0 |
| 20260904105917 | 18 | 33 | 0.0 | 0.0 | 0.00 | 0.03 | 0.03 | 99 | 1016.3 |
| 20260904105412 | 18 | 33 | 0.0 | 0.0 | 0.00 | 0.03 | 0.03 | 99 | 1016.0 |
| 20260904104907 | 18 | 33 | 0.0 | 0.0 | 0.00 | 0.03 | 0.03 | 99 | 1016.1 |
| 20260904104401 | 18 | 33 | 0.0 | 0.0 | 0.00 | 0.03 | 0.03 | 99 | 1015.9 |
| 20260904103859 | 18 | 33 | 0.0 | 0.0 | 0.00 | 0.03 | 0.03 | 99 | 1015.9 |
| 20260904103358 | 18 | 33 | 1.6 | 1.6 | 0.00 | 0.03 | 0.03 | 99 | 1015.5 |
| 20260904102854 | 18 | 33 | 0.0 | 1.6 | 0.00 | 0.03 | 0.03 | 99 | 1015.2 |
| 20260904102349 | 18 | 33 | 0.0 | 0.0 | 0.00 | 0.03 | 0.03 | 99 | 1015.4 |
| 20260904101845 | 18 | 33 | 0.0 | 0.0 | 0.00 | 0.03 | 0.03 | 99 | 1015.9 |
| 20260904101342 | 18 | 33 | 0.0 | 0.0 | 0.00 | 0.03 | 0.03 | 99 | 1015.8 |
| 20260904100837 | 18 | 33 | 0.0 | 0.0 | 0.00 | 0.03 | 0.03 | 99 | 1015.9 |
| 20260904100333 | 18 | 33 | 0.0 | 0.0 | 0.00 | 0.03 | 0.03 | 99 | 1015.9 |
| 20260904095828 | 18 | 33 | 0.0 | 0.0 | 0.00 | 0.03 | 0.03 | 99 | 1016.1 |
| 20260904095322 | 18 | 33 | 0.0 | 0.0 | 0.00 | 0.03 | 0.03 | 99 | 1016.2 |
| 20260904094817 | 18 | 33 | 0.0 | 0.0 | 0.00 | 0.03 | 0.03 | 99 | 1016.1 |
| 20260904094312 | 18 | 33 | 0.0 | 0.0 | 0.00 | 0.03 | 0.03 | 99 | 1015.9 |
| 20260904093808 | 18 | 32 | 0.0 | 0.0 | 0.00 | 0.03 | 0.03 | 99 | 1015.7 |
| 20260904093303 | 18 | 33 | 0.0 | 0.0 | 0.00 | 0.03 | 0.03 | 99 | 1015.6 |
| 20260904092758 | 18 | 33 | 0.0 | 0.0 | 0.00 | 0.03 | 0.03 | 99 | 1015.7 |
| 20260904092255 | 18 | 33 | 0.0 | 0.0 | 0.00 | 0.03 | 0.03 | 99 | 1015.7 |
| 20260904091751 | 18 | 33 | 0.0 | 0.0 | 0.00 | 0.03 | 0.03 | 99 | 1015.7 |
| 20260904091245 | 18 | 32 | 0.0 | 0.0 | 0.00 | 0.03 | 0.03 | 99 | 1015.6 |
| 20260904090741 | 18 | 32 | 0.0 | 0.0 | 0.00 | 0.03 | 0.03 | 99 | 1015.6 |
| 20260904090236 | 18 | 32 | 0.0 | 0.0 | 0.00 | 0.03 | 0.03 | 99 | 1015.6 |
| 20260904085730 | 18 | 32 | 1.6 | 1.6 | 0.00 | 0.03 | 0.03 | 99 | 1015.5 |
| 20260904085226 | 18 | 32 | 3.2 | 4.8 | 0.00 | 0.03 | 0.03 | 99 | 1015.5 |
| 20260904084720 | 18 | 33 | 0.0 | 0.0 | 0.00 | 0.03 | 0.03 | 99 | 1015.3 |
| 20260904084216 | 18 | 33 | 0.0 | 0.0 | 0.00 | 0.03 | 0.03 | 99 | 1015.3 |
| 20260904083712 | 18 | 33 | 1.6 | 1.6 | 0.00 | 0.03 | 0.03 | 99 | 1015.3 |
| 20260904083209 | 18 | 33 | 0.0 | 0.0 | 0.00 | 0.03 | 0.03 | 99 | 1015.1 |
| 20260904082703 | 19 | 33 | 0.0 | 0.0 | 0.00 | 0.03 | 0.03 | 99 | 1015.5 |
| 20260904082158 | 19 | 33 | 0.0 | 0.0 | 0.00 | 0.03 | 0.03 | 99 | 1015.5 |
| 20260904081654 | 19 | 33 | 0.0 | 0.0 | 0.00 | 0.03 | 0.03 | 99 | 1015.7 |
| 20260904081149 | 19 | 33 | 0.0 | 0.0 | 0.00 | 0.03 | 0.03 | 99 | 1015.6 |
| 20260904080644 | 19 | 33 | 0.0 | 0.0 | 0.00 | 0.03 | 0.03 | 99 | 1015.6 |
| 20260904080140 | 19 | 33 | 0.0 | 0.0 | 0.00 | 0.03 | 0.03 | 99 | 1015.7 |
| 20260904075636 | 19 | 33 | 0.0 | 0.0 | 0.00 | 0.03 | 0.03 | 99 | 1015.7 |
| 20260904075131 | 19 | 32 | 0.0 | 0.0 | 0.00 | 0.03 | 0.03 | 99 | 1015.7 |
| 20260904074625 | 19 | 33 | 0.0 | 0.0 | 0.00 | 0.03 | 0.03 | 99 | 1015.5 |
| 20260904074120 | 19 | 33 | 0.0 | 0.0 | 0.00 | 0.03 | 0.03 | 99 | 1015.6 |
| 20260904073614 | 19 | 33 | 0.0 | 0.0 | 0.00 | 0.03 | 0.03 | 99 | 1015.7 |
| 20260904073111 | 19 | 32 | 0.0 | 0.0 | 0.00 | 0.03 | 0.03 | 99 | 1016.0 |
| 20260904072606 | 19 | 32 | 0.0 | 0.0 | 0.00 | 0.03 | 0.03 | 99 | 1015.7 |
| 20260904072101 | 19 | 32 | 0.0 | 0.0 | 0.00 | 0.03 | 0.03 | 99 | 1015.5 |
| 20260904071557 | 19 | 32 | 0.0 | 0.0 | 0.00 | 0.03 | 0.03 | 99 | 1015.7 |
| 20260904071052 | 19 | 32 | 0.0 | 0.0 | 0.00 | 0.03 | 0.03 | 99 | 1015.7 |
| 20260904070550 | 19 | 33 | 0.0 | 0.0 | 0.00 | 0.03 | 0.03 | 99 | 1015.6 |
| 20260904070045 | 19 | 32 | 0.0 | 0.0 | 0.00 | 0.03 | 0.03 | 99 | 1015.4 |
| 20260904065540 | 19 | 33 | 0.0 | 0.0 | 0.00 | 0.03 | 0.03 | 99 | 1015.5 |
| 20260904065037 | 19 | 32 | 0.0 | 0.0 | 0.00 | 0.03 | 0.03 | 99 | 1015.5 |
| 20260904064533 | 19 | 32 | 0.0 | 0.0 | 0.00 | 0.03 | 0.03 | 99 | 1015.9 |
| 20260904064033 | 19 | 32 | 0.0 | 0.0 | 0.00 | 0.03 | 0.03 | 99 | 1015.8 |
| 20260904063529 | 19 | 32 | 0.0 | 0.0 | 0.00 | 0.03 | 0.03 | 98 | 1015.8 |
| 20260904063024 | 19 | 32 | 0.0 | 0.0 | 0.00 | 0.03 | 0.03 | 98 | 1015.7 |
| 20260904062520 | 19 | 33 | 0.0 | 0.0 | 0.00 | 0.03 | 0.03 | 98 | 1015.9 |
| 20260904062015 | 19 | 33 | 0.0 | 0.0 | 0.00 | 0.03 | 0.03 | 98 | 1015.9 |
| 20260904061511 | 20 | 33 | 0.0 | 0.0 | 0.00 | 0.03 | 0.03 | 98 | 1015.9 |
| 20260904061007 | 20 | 33 | 0.0 | 0.0 | 0.00 | 0.03 | 0.03 | 98 | 1015.8 |
| 20260904060503 | 20 | 32 | 0.0 | 0.0 | 0.00 | 0.03 | 0.03 | 98 | 1016.1 |
| 20260904055959 | 20 | 32 | 0.0 | 1.6 | 0.00 | 0.03 | 0.03 | 98 | 1016.0 |
| 20260904055454 | 20 | 32 | 1.6 | 1.6 | 0.00 | 0.03 | 0.03 | 98 | 1016.0 |
| 20260904054949 | 20 | 32 | 1.6 | 1.6 | 0.00 | 0.03 | 0.03 | 98 | 1016.0 |
| 20260904054445 | 20 | 32 | 0.0 | 1.6 | 0.00 | 0.03 | 0.03 | 98 | 1016.2 |
| 20260904053941 | 20 | 33 | 0.0 | 0.0 | 0.00 | 0.03 | 0.03 | 98 | 1015.9 |
| 20260904053440 | 19 | 33 | 0.0 | 0.0 | 0.00 | 0.03 | 0.03 | 98 | 1016.2 |
| 20260904052936 | 20 | 33 | 0.0 | 0.0 | 0.00 | 0.03 | 0.03 | 98 | 1015.9 |
| 20260904052432 | 20 | 33 | 1.6 | 1.6 | 0.00 | 0.03 | 0.03 | 98 | 1015.9 |
| 20260904051928 | 20 | 33 | 0.0 | 0.0 | 0.00 | 0.03 | 0.03 | 98 | 1015.9 |
| 20260904051424 | 20 | 33 | 1.6 | 1.6 | 0.00 | 0.03 | 0.03 | 98 | 1015.9 |
| 20260904050918 | 20 | 32 | 0.0 | 0.0 | 0.00 | 0.03 | 0.03 | 98 | 1015.6 |
| 20260904050415 | 20 | 32 | 0.0 | 0.0 | 0.00 | 0.03 | 0.03 | 98 | 1015.6 |
| 20260904045914 | 20 | 40 | 0.0 | 1.6 | 0.00 | 0.03 | 0.03 | 98 | 1015.5 |
| 20260904045409 | 20 | 40 | 1.6 | 1.6 | 0.00 | 0.03 | 0.03 | 98 | 1015.4 |
| 20260904044909 | 20 | 22 | 1.6 | 1.6 | 0.00 | 0.03 | 0.03 | 98 | 1015.4 |
| 20260904044406 | 20 | 82 | 1.6 | 1.6 | 0.00 | 0.03 | 0.03 | 98 | 1015.4 |
| 20260904043902 | 20 | 82 | 0.0 | 0.0 | 0.00 | 0.03 | 0.03 | 97 | 1015.2 |
| 20260904043358 | 20 | 231 | 3.2 | 4.8 | 0.00 | 0.03 | 0.03 | 98 | 1015.2 |
| 20260904042853 | 20 | 90 | 0.0 | 1.6 | 0.00 | 0.03 | 0.03 | 97 | 1015.3 |